Location: Antioch Baptist Church
(32.6696°N, 85.7327°W)
Time: 03:39:35
(UTC+00:00)

BREEZE-M R/B - Visible Passes

Search period start: 23 October 2020 00:00
Search period end: 02 November 2020 00:00
Orbit: 311 x 4526 km, 49.7° (Epoch: 22 October)

Date Brightness Start Highest point End Pass type
(mag) Time Alt. Az. Time Alt. Az. Time Alt. Az.
23 Oct 6.1 02:18:11 10° NNW 02:20:06 21° NNW 02:20:06 21° NNW visible
24 Oct 5.8 01:04:36 10° NNW 01:08:30 20° NNE 01:08:30 20° NNE visible
24 Oct 5.7 23:51:12 10° N 23:53:07 12° NNE 23:55:29 10° NE visible
25 Oct 6.0 02:11:46 10° NNW 02:13:46 22° NNW 02:13:46 22° NNW visible
26 Oct 5.6 00:58:12 10° NNW 01:02:10 22° NNE 01:02:10 22° NNE visible
26 Oct 5.7 23:45:02 10° N 23:47:00 12° NNE 23:49:27 10° NE visible
27 Oct 5.9 02:05:14 10° NW 02:07:25 25° NNW 02:07:25 25° NNW visible
28 Oct 5.5 00:51:40 10° NNW 00:55:49 25° NNE 00:55:49 25° NNE visible
28 Oct 6.9 03:12:35 10° NW 03:12:40 11° NW 03:12:40 11° NW visible
28 Oct 5.6 23:38:36 10° N 23:40:45 13° NNE 23:43:31 10° NE visible
29 Oct 5.7 01:58:37 10° NW 02:01:06 29° NNW 02:01:06 29° NNW visible
30 Oct 5.3 00:45:02 10° NNW 00:49:32 28° NNE 00:49:32 28° NNE visible
30 Oct 6.8 03:06:01 10° NW 03:06:23 12° NW 03:06:23 12° NW visible
30 Oct 5.5 23:31:56 10° N 23:34:22 14° NNE 23:37:38 10° NE visible
31 Oct 5.4 01:51:56 10° NW 01:54:51 35° NNW 01:54:51 35° NNW visible
01 Nov 5.1 00:38:16 10° NNW 00:43:01 32° NE 00:43:20 32° NE visible
01 Nov 6.7 02:59:24 10° WNW 03:00:11 15° WNW 03:00:11 15° WNW visible
01 Nov 5.4 23:25:06 10° N 23:27:50 15° NNE 23:31:42 10° ENE visible
